QPF
0.01 0.02 0.01 0.01 0.00 0.00 0.00 0.00 0.01 0.01 0.01 0.02 0.01 0.01 0.00 0.00 0.00 0.00 0.00 0.00 0.00 0.00 0.00 0.00 0.00 0.00 0.00 0.00 0.00 0.00 0.00 0.00 0.00 0.00 0.00 0.00 0.00 0.00 0.00 0.00 0.00 0.00 0.00 0.00
0.01 0.01 0.00 0.00 0.00 0.00 0.00 0.00 0.01 0.01 0.01 0.01 0.01 0.01 0.00 0.00 0.00 0.00 0.00 0.00 0.00 0.00 0.00 0.00 0.00 0.00 0.00 0.00 0.00 0.00 0.00 0.00 0.00 0.00 0.00 0.00 0.00 0.00 0.00 0.00 0.00 0.00 0.00 0.00
0.00 0.00 0.00 0.00 0.01 0.01 0.00 0.00 0.01 0.01 0.01 0.01 0.02 0.01 0.01 0.00 0.00 0.00 0.00 0.01 0.01 0.00 0.00 0.00 0.00 0.00 0.00 0.00 0.00 0.00 0.00 0.00 0.00 0.00 0.00 0.00 0.00 0.01 0.01 0.01 0.02 0.01 0.00 0.00
0.00 0.00 0.00 0.00 0.01 0.01 0.01 0.01 0.01 0.01 0.01 0.02 0.01 0.03 0.01 0.01 0.00 0.00 0.00 0.01 0.01 0.00 0.00 0.00 0.00 0.00 0.00 0.00 0.00 0.00 0.00 0.00 0.00 0.00 0.00 0.00 0.01 0.02 0.01 0.01 0.01 0.01 0.01 0.00
0.00 0.00 0.00 0.00 0.00 0.00 0.00 0.00 0.01 0.01 0.02 0.03 0.01 0.02 0.03 0.01 0.01 0.00 0.00 0.00 0.00 0.00 0.00 0.00 0.01 0.00 0.00 0.00 0.00 0.00 0.00 0.00 0.00 0.00 0.00 0.00 0.00 0.01 0.01 0.01 0.01 0.01 0.01 0.01
0.00 0.00 0.00 0.00 0.00 0.00 0.00 0.00 0.01 0.01 0.02 0.03 0.01 0.03 0.05 0.01 0.00 0.00 0.00 0.00 0.00 0.00 0.00 0.00 0.01 0.01 0.00 0.00 0.00 0.00 0.00 0.00 0.00 0.00 0.00 0.00 0.00 0.01 0.01 0.02 0.01 0.02 0.02 0.02
0.00 0.00 0.00 0.00 0.00 0.00 0.00 0.01 0.02 0.02 0.03 0.02 0.00 0.01 0.02 0.00 0.00 0.00 0.00 0.00 0.00 0.00 0.00 0.00 0.00 0.01 0.00 0.00 0.00 0.00 0.00 0.00 0.00 0.00 0.00 0.00 0.01 0.02 0.02 0.02 0.01 0.02 0.02 0.02
0.00 0.00 0.00 0.00 0.00 0.00 0.00 0.01 0.02 0.03 0.02 0.02 0.01 0.01 0.01 0.00 0.00 0.00 0.00 0.00 0.00 0.00 0.00 0.00 0.00 0.00 0.00 0.00 0.00 0.00 0.00 0.00 0.01 0.01 0.01 0.01 0.01 0.01 0.02 0.02 0.01 0.02 0.03 0.01
0.00 0.00 0.00 0.00 0.00 0.00 0.00 0.00 0.00 0.01 0.02 0.03 0.02 0.01 0.01 0.00 0.00 0.00 0.00 0.00 0.00 0.00 0.00 0.00 0.00 0.00 0.00 0.00 0.00 0.00 0.00 0.01 0.01 0.02 0.02 0.01 0.01 0.02 0.01 0.01 0.01 0.02 0.02 0.01
0.00 0.00 0.00 0.00 0.00 0.00 0.00 0.01 0.01 0.02 0.03 0.04 0.03 0.02 0.02 0.01 0.00 0.00 0.00 0.00 0.00 0.00 0.00 0.00 0.00 0.00 0.01 0.00 0.00 0.00 0.01 0.01 0.01 0.02 0.02 0.02 0.02 0.02 0.01 0.01 0.01 0.01 0.00 0.00
0.00 0.00 0.00 0.00 0.00 0.01 0.01 0.01 0.01 0.01 0.01 0.02 0.04 0.02 0.00 0.00 0.00 0.00 0.00 0.00 0.00 0.00 0.00 0.00 0.00 0.00 0.00 0.00 0.00 0.01 0.01 0.00 0.01 0.01 0.01 0.02 0.02 0.02 0.01 0.00 0.01 0.02 0.01 0.01
0.01 0.00 0.00 0.00 0.00 0.00 0.00 0.01 0.01 0.02 0.01 0.01 0.02 0.02 0.00 0.00 0.00 0.00 0.00 0.00 0.00 0.00 0.00 0.00 0.00 0.00 0.00 0.00 0.00 0.01 0.01 0.00 0.00 0.00 0.01 0.01 0.03 0.03 0.02 0.02 0.03 0.02 0.01 0.00
0.01 0.01 0.01 0.01 0.00 0.00 0.00 0.00 0.01 0.01 0.01 0.01 0.02 0.01 0.00 0.00 0.00 0.00 0.00 0.00 0.00 0.00 0.00 0.00 0.00 0.00 0.00 0.00 0.00 0.01 0.00 0.00 0.00 0.00 0.00 0.00 0.01 0.02 0.02 0.03 0.03 0.03 0.02 0.01
0.01 0.01 0.01 0.01 0.01 0.00 0.01 0.01 0.01 0.01 0.01 0.02 0.01 0.00 0.00 0.00 0.00 0.00 0.00 0.00 0.00 0.00 0.00 0.00 0.00 0.00 0.00 0.00 0.00 0.00 0.00 0.00 0.00 0.00 0.00 0.01 0.01 0.01 0.02 0.02 0.02 0.02 0.03 0.02
0.01 0.01 0.00 0.00 0.00 0.00 0.00 0.00 0.00 0.00 0.00 0.01 0.01 0.00 0.00 0.00 0.00 0.00 0.00 0.00 0.00 0.00 0.00 0.00 0.00 0.00 0.00 0.00 0.00 0.00 0.00 0.00 0.00 0.01 0.01 0.01 0.01 0.02 0.01 0.02 0.02 0.03 0.03 0.01
0.00 0.01 0.00 0.00 0.00 0.00 0.00 0.00 0.00 0.00 0.00 0.00 0.00 0.00 0.00 0.00 0.00 0.00 0.00 0.00 0.00 0.00 0.00 0.00 0.00 0.01 0.00 0.00 0.00 0.00 0.00 0.00 0.01 0.01 0.01 0.02 0.03 0.03 0.01 0.01 0.00 0.02 0.03 0.02
0.00 0.01 0.01 0.00 0.00 0.00 0.00 0.00 0.00 0.00 0.00 0.00 0.00 0.00 0.00 0.00 0.00 0.00 0.00 0.00 0.01 0.00 0.00 0.00 0.00 0.01 0.00 0.00 0.00 0.00 0.00 0.00 0.00 0.01 0.01 0.03 0.04 0.02 0.01 0.01 0.01 0.01 0.01 0.02
0.00 0.01 0.01 0.01 0.01 0.01 0.00 0.00 0.00 0.00 0.00 0.00 0.00 0.00 0.00 0.00 0.00 0.00 0.00 0.00 0.00 0.00 0.00 0.00 0.01 0.01 0.00 0.00 0.00 0.00 0.00 0.00 0.00 0.00 0.01 0.02 0.04 0.03 0.03 0.04 0.04 0.03 0.02 0.03
0.00 0.01 0.01 0.02 0.01 0.01 0.00 0.00 0.00 0.00 0.00 0.00 0.00 0.00 0.00 0.00 0.01 0.01 0.00 0.00 0.00 0.00 0.00 0.00 0.00 0.00 0.00 0.01 0.00 0.00 0.00 0.00 0.00 0.00 0.00 0.01 0.02 0.03 0.03 0.03 0.03 0.03 0.03 0.03
0.00 0.00 0.01 0.01 0.02 0.01 0.00 0.00 0.00 0.00 0.01 0.00 0.00 0.00 0.00 0.00 0.01 0.01 0.00 0.00 0.00 0.00 0.00 0.01 0.01 0.01 0.00 0.00 0.01 0.00 0.00 0.00 0.00 0.00 0.00 0.00 0.01 0.01 0.02 0.02 0.02 0.02 0.03 0.03
0.01 0.01 0.01 0.01 0.01 0.00 0.00 0.00 0.00 0.01 0.02 0.00 0.00 0.00 0.00 0.00 0.01 0.00 0.00 0.00 0.00 0.00 0.00 0.00 0.01 0.01 0.01 0.01 0.01 0.01 0.00 0.00 0.00 0.01 0.00 0.00 0.00 0.01 0.01 0.02 0.02 0.02 0.03 0.03
0.01 0.02 0.01 0.01 0.01 0.01 0.00 0.00 0.00 0.01 0.00 0.00 0.00 0.00 0.00 0.00 0.00 0.00 0.00 0.00 0.00 0.00 0.01 0.01 0.01 0.01 0.01 0.01 0.01 0.01 0.00 0.00 0.00 0.01 0.01 0.01 0.00 0.01 0.01 0.01 0.02 0.02 0.02 0.03
0.02 0.02 0.01 0.01 0.01 0.01 0.00 0.00 0.00 0.00 0.00 0.00 0.00 0.00 0.00 0.00 0.00 0.00 0.00 0.00 0.00 0.00 0.01 0.01 0.01 0.01 0.02 0.01 0.01 0.00 0.00 0.01 0.00 0.00 0.01 0.01 0.02 0.02 0.02 0.02 0.02 0.02 0.02 0.02
0.02 0.02 0.02 0.01 0.01 0.00 0.00 0.00 0.00 0.00 0.00 0.00 0.00 0.00 0.00 0.00 0.00 0.00 0.00 0.00 0.00 0.00 0.00 0.01 0.02 0.01 0.01 0.01 0.01 0.01 0.01 0.01 0.01 0.01 0.01 0.02 0.03 0.03 0.02 0.02 0.01 0.01 0.01 0.02
0.01 0.01 0.01 0.01 0.00 0.00 0.00 0.00 0.00 0.00 0.01 0.01 0.00 0.00 0.00 0.00 0.00 0.00 0.00 0.00 0.00 0.00 0.00 0.01 0.02 0.01 0.01 0.01 0.01 0.01 0.01 0.01 0.00 0.01 0.01 0.02 0.02 0.02 0.01 0.01 0.01 0.01 0.01 0.02
0.01 0.01 0.01 0.01 0.00 0.00 0.00 0.00 0.00 0.00 0.01 0.01 0.00 0.00 0.00 0.00 0.00 0.00 0.01 0.01 0.01 0.00 0.00 0.00 0.00 0.00 0.01 0.01 0.01 0.00 0.00 0.00 0.00 0.01 0.02 0.02 0.01 0.01 0.01 0.01 0.01 0.01 0.01 0.02
MSLP
1013.31 1013.70 1014.03 1014.30 1014.52 1014.70 1014.85 1014.98 1015.06 1015.07 1014.99 1014.81 1014.54 1014.20 1013.82 1013.47 1013.19 1013.02 1012.98 1013.05 1013.22 1013.44 1013.67 1013.87 1014.04 1014.15 1014.24 1014.32 1014.41 1014.53 1014.70 1014.91 1015.13 1015.35 1015.54 1015.68 1015.77 1015.78 1015.75 1015.68 1015.59 1015.51 1015.46 1015.44
1013.90 1014.17 1014.37 1014.52 1014.64 1014.75 1014.87 1015.00 1015.09 1015.13 1015.06 1014.88 1014.57 1014.16 1013.70 1013.26 1012.90 1012.67 1012.61 1012.71 1012.95 1013.27 1013.64 1013.97 1014.25 1014.45 1014.59 1014.68 1014.75 1014.85 1014.98 1015.16 1015.38 1015.62 1015.84 1016.03 1016.15 1016.20 1016.17 1016.09 1015.97 1015.85 1015.75 1015.70
1014.41 1014.56 1014.63 1014.66 1014.69 1014.75 1014.85 1014.99 1015.11 1015.17 1015.12 1014.93 1014.58 1014.10 1013.56 1013.02 1012.57 1012.28 1012.20 1012.32 1012.63 1013.06 1013.55 1014.02 1014.42 1014.71 1014.89 1014.99 1015.05 1015.10 1015.19 1015.34 1015.54 1015.79 1016.04 1016.27 1016.43 1016.52 1016.52 1016.44 1016.31 1016.16 1016.03 1015.95
1014.81 1014.84 1014.80 1014.74 1014.72 1014.75 1014.86 1015.02 1015.18 1015.28 1015.24 1015.03 1014.64 1014.09 1013.44 1012.79 1012.24 1011.88 1011.76 1011.90 1012.26 1012.79 1013.40 1014.00 1014.51 1014.89 1015.12 1015.24 1015.28 1015.29 1015.34 1015.45 1015.63 1015.87 1016.15 1016.41 1016.62 1016.75 1016.78 1016.72 1016.60 1016.44 1016.29 1016.19
1015.07 1015.01 1014.90 1014.80 1014.75 1014.80 1014.95 1015.16 1015.37 1015.51 1015.49 1015.26 1014.81 1014.17 1013.41 1012.63 1011.97 1011.51 1011.34 1011.46 1011.86 1012.46 1013.17 1013.88 1014.50 1014.96 1015.26 1015.40 1015.43 1015.42 1015.42 1015.49 1015.65 1015.89 1016.18 1016.47 1016.73 1016.90 1016.97 1016.94 1016.83 1016.68 1016.53 1016.41
1015.17 1015.07 1014.93 1014.83 1014.81 1014.92 1015.13 1015.42 1015.70 1015.88 1015.88 1015.62 1015.11 1014.37 1013.49 1012.59 1011.79 1011.23 1010.97 1011.05 1011.45 1012.10 1012.88 1013.68 1014.39 1014.94 1015.29 1015.47 1015.51 1015.48 1015.46 1015.51 1015.64 1015.87 1016.17 1016.48 1016.77 1016.99 1017.10 1017.10 1017.02 1016.88 1016.73 1016.60
1015.14 1015.02 1014.90 1014.85 1014.91 1015.10 1015.41 1015.79 1016.14 1016.37 1016.38 1016.11 1015.54 1014.70 1013.70 1012.66 1011.74 1011.05 1010.69 1010.71 1011.09 1011.74 1012.56 1013.42 1014.20 1014.82 1015.24 1015.46 1015.53 1015.51 1015.48 1015.51 1015.63 1015.85 1016.14 1016.47 1016.78 1017.03 1017.18 1017.22 1017.16 1017.04 1016.90 1016.78
1015.01 1014.91 1014.84 1014.86 1015.01 1015.31 1015.73 1016.20 1016.63 1016.90 1016.93 1016.64 1016.01 1015.10 1014.00 1012.85 1011.80 1011.00 1010.54 1010.48 1010.79 1011.42 1012.25 1013.14 1013.97 1014.65 1015.13 1015.40 1015.51 1015.51 1015.49 1015.52 1015.63 1015.84 1016.13 1016.46 1016.78 1017.05 1017.22 1017.28 1017.25 1017.16 1017.03 1016.92
1014.83 1014.77 1014.77 1014.87 1015.12 1015.51 1016.02 1016.57 1017.05 1017.37 1017.40 1017.10 1016.45 1015.49 1014.33 1013.10 1011.96 1011.07 1010.52 1010.37 1010.61 1011.19 1011.99 1012.88 1013.73 1014.45 1014.98 1015.31 1015.46 1015.51 1015.52 1015.55 1015.66 1015.86 1016.14 1016.46 1016.78 1017.04 1017.23 1017.31 1017.30 1017.22 1017.12 1017.02
1014.68 1014.66 1014.72 1014.89 1015.21 1015.67 1016.24 1016.82 1017.33 1017.66 1017.70 1017.40 1016.75 1015.78 1014.60 1013.34 1012.17 1011.22 1010.61 1010.39 1010.56 1011.07 1011.81 1012.67 1013.52 1014.25 1014.82 1015.20 1015.41 1015.50 1015.55 1015.61 1015.72 1015.91 1016.17 1016.47 1016.77 1017.03 1017.21 1017.30 1017.30 1017.24 1017.16 1017.09
1014.63 1014.65 1014.74 1014.96 1015.31 1015.78 1016.34 1016.92 1017.41 1017.71 1017.74 1017.44 1016.81 1015.87 1014.73 1013.51 1012.36 1011.41 1010.78 1010.51 1010.61 1011.05 1011.72 1012.52 1013.34 1014.07 1014.65 1015.07 1015.33 1015.48 1015.57 1015.66 1015.79 1015.98 1016.22 1016.49 1016.77 1017.00 1017.17 1017.25 1017.27 1017.23 1017.17 1017.13
1014.73 1014.77 1014.89 1015.10 1015.43 1015.86 1016.35 1016.85 1017.26 1017.50 1017.50 1017.20 1016.60 1015.73 1014.67 1013.54 1012.47 1011.58 1010.96 1010.67 1010.73 1011.09 1011.68 1012.41 1013.17 1013.87 1014.46 1014.91 1015.22 1015.43 1015.57 1015.70 1015.85 1016.04 1016.27 1016.51 1016.76 1016.96 1017.12 1017.20 1017.23 1017.22 1017.19 1017.18
1015.00 1015.06 1015.17 1015.35 1015.61 1015.93 1016.30 1016.65 1016.93 1017.07 1017.00 1016.68 1016.12 1015.34 1014.40 1013.40 1012.45 1011.65 1011.09 1010.81 1010.84 1011.13 1011.64 1012.28 1012.97 1013.63 1014.21 1014.68 1015.03 1015.30 1015.50 1015.68 1015.86 1016.07 1016.29 1016.51 1016.73 1016.92 1017.06 1017.15 1017.20 1017.22 1017.23 1017.27
1015.42 1015.50 1015.59 1015.71 1015.86 1016.04 1016.22 1016.39 1016.49 1016.48 1016.31 1015.96 1015.42 1014.73 1013.92 1013.07 1012.26 1011.59 1011.10 1010.86 1010.86 1011.09 1011.52 1012.07 1012.68 1013.29 1013.85 1014.33 1014.73 1015.06 1015.33 1015.57 1015.80 1016.03 1016.25 1016.48 1016.69 1016.87 1017.01 1017.12 1017.20 1017.26 1017.33 1017.42
1015.93 1016.03 1016.09 1016.14 1016.16 1016.17 1016.15 1016.10 1015.99 1015.81 1015.51 1015.11 1014.58 1013.96 1013.27 1012.56 1011.91 1011.35 1010.96 1010.74 1010.73 1010.91 1011.25 1011.71 1012.24 1012.79 1013.33 1013.83 1014.28 1014.68 1015.02 1015.34 1015.63 1015.90 1016.16 1016.40 1016.62 1016.81 1016.98 1017.12 1017.25 1017.36 1017.49 1017.63
1016.44 1016.55 1016.59 1016.56 1016.46 1016.30 1016.09 1015.82 1015.50 1015.13 1014.70 1014.21 1013.68 1013.10 1012.51 1011.93 1011.39 1010.95 1010.62 1010.44 1010.41 1010.54 1010.80 1011.17 1011.63 1012.13 1012.65 1013.17 1013.67 1014.14 1014.57 1014.98 1015.35 1015.69 1016.00 1016.28 1016.53 1016.75 1016.95 1017.14 1017.32 1017.50 1017.69 1017.90
1016.83 1016.95 1016.98 1016.89 1016.68 1016.38 1015.98 1015.52 1015.01 1014.47 1013.91 1013.34 1012.78 1012.22 1011.69 1011.20 1010.77 1010.40 1010.13 1009.96 1009.91 1009.98 1010.17 1010.46 1010.85 1011.31 1011.82 1012.36 1012.92 1013.47 1014.00 1014.50 1014.96 1015.38 1015.76 1016.10 1016.40 1016.67 1016.93 1017.17 1017.41 1017.66 1017.92 1018.18
1017.01 1017.14 1017.14 1017.00 1016.72 1016.30 1015.78 1015.17 1014.51 1013.84 1013.17 1012.53 1011.94 1011.39 1010.90 1010.46 1010.09 1009.77 1009.53 1009.36 1009.28 1009.29 1009.41 1009.64 1009.96 1010.39 1010.89 1011.46 1012.07 1012.70 1013.33 1013.93 1014.49 1015.01 1015.46 1015.87 1016.24 1016.57 1016.88 1017.18 1017.49 1017.80 1018.11 1018.43
1016.94 1017.03 1017.00 1016.82 1016.49 1016.01 1015.41 1014.71 1013.97 1013.21 1012.48 1011.80 1011.19 1010.65 1010.18 1009.77 1009.43 1009.14 1008.90 1008.72 1008.60 1008.56 1008.61 1008.78 1009.05 1009.44 1009.94 1010.53 1011.19 1011.90 1012.61 1013.31 1013.97 1014.57 1015.12 1015.60 1016.03 1016.42 1016.79 1017.15 1017.50 1017.87 1018.23 1018.60
1016.59 1016.62 1016.54 1016.32 1015.96 1015.45 1014.82 1014.11 1013.35 1012.58 1011.84 1011.15 1010.55 1010.02 1009.57 1009.19 1008.86 1008.58 1008.33 1008.13 1007.97 1007.88 1007.88 1007.99 1008.21 1008.57 1009.06 1009.66 1010.36 1011.12 1011.90 1012.68 1013.42 1014.10 1014.72 1015.27 1015.76 1016.21 1016.63 1017.03 1017.43 1017.84 1018.24 1018.63
1016.03 1015.96 1015.80 1015.53 1015.15 1014.65 1014.04 1013.36 1012.64 1011.92 1011.23 1010.59 1010.02 1009.53 1009.11 1008.76 1008.44 1008.16 1007.90 1007.67 1007.48 1007.35 1007.29 1007.35 1007.53 1007.85 1008.32 1008.91 1009.61 1010.40 1011.22 1012.05 1012.85 1013.59 1014.27 1014.88 1015.42 1015.92 1016.38 1016.82 1017.25 1017.68 1018.10 1018.52
1015.32 1015.11 1014.85 1014.53 1014.13 1013.66 1013.11 1012.51 1011.89 1011.26 1010.66 1010.11 1009.62 1009.19 1008.81 1008.49 1008.19 1007.91 1007.65 1007.40 1007.17 1007.00 1006.90 1006.90 1007.04 1007.31 1007.73 1008.29 1008.98 1009.75 1010.58 1011.42 1012.25 1013.03 1013.75 1014.41 1014.99 1015.53 1016.02 1016.49 1016.94 1017.39 1017.83 1018.26
1014.56 1014.19 1013.82 1013.44 1013.03 1012.59 1012.12 1011.63 1011.13 1010.64 1010.17 1009.73 1009.33 1008.98 1008.66 1008.37 1008.09 1007.82 1007.55 1007.29 1007.04 1006.83 1006.69 1006.65 1006.72 1006.93 1007.30 1007.80 1008.43 1009.16 1009.96 1010.79 1011.61 1012.41 1013.15 1013.84 1014.46 1015.02 1015.55 1016.04 1016.51 1016.97 1017.43 1017.87
1013.80 1013.28 1012.80 1012.36 1011.95 1011.56 1011.18 1010.81 1010.45 1010.10 1009.77 1009.45 1009.15 1008.88 1008.61 1008.36 1008.10 1007.83 1007.56 1007.29 1007.02 1006.78 1006.61 1006.51 1006.53 1006.68 1006.96 1007.38 1007.94 1008.60 1009.33 1010.12 1010.92 1011.71 1012.46 1013.16 1013.81 1014.41 1014.96 1015.48 1015.98 1016.45 1016.92 1017.37
1013.06 1012.42 1011.87 1011.39 1010.99 1010.66 1010.38 1010.13 1009.91 1009.70 1009.49 1009.28 1009.07 1008.85 1008.63 1008.39 1008.14 1007.88 1007.60 1007.31 1007.03 1006.77 1006.56 1006.42 1006.38 1006.46 1006.66 1006.99 1007.45 1008.02 1008.68 1009.40 1010.16 1010.92 1011.67 1012.39 1013.06 1013.70 1014.29 1014.84 1015.36 1015.85 1016.33 1016.80
1012.34 1011.63 1011.04 1010.57 1010.21 1009.95 1009.77 1009.64 1009.54 1009.44 1009.33 1009.20 1009.04 1008.85 1008.64 1008.40 1008.14 1007.85 1007.56 1007.25 1006.96 1006.69 1006.45 1006.29 1006.20 1006.21 1006.34 1006.58 1006.95 1007.42 1007.99 1008.64 1009.34 1010.08 1010.81 1011.54 1012.25 1012.92 1013.54 1014.13 1014.69 1015.21 1015.71 1016.19
Thickness
5771 5761 5754 5761 5766 5764 5762 5756 5751 5756 5767 5757 5749 5749 5755 5760 5758 5755 5754 5753 5751 5751 5754 5754 5752 5750 5747 5745 5743 5741 5738 5737 5735 5732 5729 5727 5725 5726 5725 5725 5724 5723 5723 5722
5760 5755 5769 5776 5772 5766 5761 5753 5751 5758 5766 5757 5750 5751 5759 5761 5759 5759 5756 5754 5752 5751 5750 5749 5749 5747 5745 5742 5741 5741 5738 5736 5734 5732 5731 5729 5726 5725 5724 5723 5722 5722 5722 5721
5754 5765 5776 5770 5763 5757 5756 5751 5750 5749 5756 5758 5748 5743 5753 5761 5765 5763 5762 5759 5756 5752 5749 5747 5746 5745 5743 5740 5741 5741 5738 5736 5734 5732 5731 5729 5725 5722 5720 5719 5719 5720 5720 5719
5761 5772 5770 5762 5758 5757 5747 5761 5757 5750 5739 5735 5743 5723 5745 5757 5755 5757 5757 5756 5755 5754 5752 5749 5746 5743 5741 5741 5741 5740 5738 5736 5734 5731 5728 5724 5719 5716 5717 5718 5718 5719 5719 5718
5756 5765 5761 5755 5759 5760 5754 5763 5757 5749 5739 5733 5741 5730 5740 5756 5747 5752 5756 5757 5757 5756 5754 5750 5747 5744 5743 5742 5740 5739 5736 5734 5732 5730 5728 5724 5721 5720 5719 5719 5718 5717 5717 5717
5761 5771 5767 5762 5767 5766 5762 5755 5751 5747 5736 5718 5737 5731 5732 5749 5752 5755 5758 5759 5758 5757 5755 5752 5749 5745 5742 5740 5738 5736 5733 5731 5730 5729 5727 5724 5721 5720 5718 5716 5715 5715 5715 5716
5746 5757 5766 5767 5754 5757 5754 5734 5717 5714 5711 5721 5750 5740 5740 5761 5767 5764 5760 5760 5760 5758 5754 5750 5745 5742 5739 5737 5735 5733 5730 5727 5728 5727 5726 5724 5723 5721 5718 5717 5715 5714 5713 5713
5730 5732 5753 5759 5751 5744 5746 5738 5715 5705 5712 5727 5744 5737 5751 5769 5771 5770 5767 5764 5761 5757 5754 5749 5745 5742 5739 5736 5733 5730 5728 5726 5725 5725 5725 5725 5723 5721 5719 5718 5717 5716 5715 5715
5733 5733 5756 5760 5759 5752 5739 5737 5745 5729 5727 5722 5732 5745 5753 5765 5763 5764 5762 5759 5756 5755 5753 5749 5745 5742 5739 5735 5732 5729 5727 5725 5723 5723 5724 5723 5722 5720 5719 5719 5718 5717 5717 5716
5742 5730 5745 5753 5753 5751 5749 5743 5734 5721 5707 5705 5723 5731 5732 5743 5749 5754 5755 5754 5753 5754 5752 5749 5744 5741 5738 5735 5732 5730 5727 5724 5723 5723 5722 5722 5721 5719 5718 5718 5717 5717 5717 5717
5740 5727 5731 5738 5733 5732 5736 5733 5731 5726 5723 5707 5704 5719 5753 5750 5753 5752 5753 5754 5753 5751 5749 5747 5744 5741 5738 5735 5731 5727 5726 5724 5722 5721 5721 5720 5719 5718 5717 5716 5716 5716 5716 5716
5731 5726 5719 5730 5745 5749 5740 5734 5729 5711 5713 5720 5710 5717 5760 5758 5758 5755 5753 5753 5753 5750 5749 5746 5743 5739 5735 5732 5729 5727 5725 5723 5721 5721 5719 5718 5717 5716 5715 5714 5714 5715 5715 5715
5720 5713 5704 5709 5719 5732 5730 5733 5733 5727 5719 5713 5706 5716 5754 5754 5753 5753 5751 5749 5748 5746 5745 5742 5739 5736 5733 5731 5728 5726 5725 5722 5721 5719 5718 5716 5715 5714 5713 5713 5713 5713 5713 5713
5714 5707 5704 5700 5710 5720 5719 5725 5729 5722 5708 5708 5715 5721 5736 5742 5743 5745 5746 5746 5744 5742 5740 5738 5734 5733 5732 5730 5728 5726 5723 5722 5720 5718 5716 5714 5714 5713 5712 5712 5712 5711 5711 5710
5705 5697 5708 5717 5726 5725 5722 5721 5724 5721 5720 5713 5720 5725 5733 5740 5742 5743 5744 5743 5740 5738 5735 5734 5731 5731 5730 5728 5727 5725 5722 5721 5720 5716 5714 5713 5713 5713 5712 5710 5710 5709 5709 5708
5696 5692 5698 5703 5717 5720 5717 5722 5723 5722 5724 5723 5724 5726 5743 5745 5745 5741 5740 5739 5736 5735 5734 5733 5731 5730 5729 5728 5726 5725 5722 5720 5718 5715 5712 5712 5712 5710 5709 5708 5707 5707 5706 5705
5686 5684 5682 5686 5704 5706 5701 5719 5722 5722 5727 5724 5716 5725 5739 5736 5736 5735 5736 5734 5733 5734 5734 5732 5731 5730 5731 5730 5728 5725 5723 5721 5718 5714 5712 5710 5710 5707 5707 5706 5704 5703 5702 5701
5679 5677 5677 5678 5684 5672 5708 5734 5732 5726 5727 5730 5730 5732 5735 5735 5735 5738 5738 5734 5732 5733 5733 5733 5732 5732 5733 5733 5730 5727 5724 5721 5717 5714 5711 5710 5708 5706 5704 5703 5701 5700 5699 5697
5683 5674 5668 5669 5668 5681 5707 5723 5725 5717 5716 5729 5727 5729 5732 5736 5732 5729 5736 5735 5733 5732 5732 5732 5734 5733 5733 5732 5730 5726 5722 5719 5716 5713 5711 5709 5707 5704 5702 5699 5698 5698 5696 5694
5678 5676 5666 5664 5659 5663 5694 5719 5729 5719 5702 5724 5726 5724 5725 5726 5710 5715 5730 5732 5731 5730 5730 5730 5731 5731 5730 5730 5729 5724 5720 5717 5715 5714 5712 5711 5708 5704 5701 5699 5697 5696 5695 5692
5659 5660 5658 5658 5658 5674 5702 5716 5717 5689 5694 5719 5723 5722 5720 5716 5716 5722 5729 5728 5727 5726 5726 5727 5727 5726 5726 5728 5726 5721 5719 5717 5717 5715 5713 5710 5708 5705 5702 5699 5696 5694 5692 5690
5655 5654 5655 5656 5652 5663 5701 5704 5696 5699 5714 5717 5717 5718 5717 5717 5719 5721 5722 5721 5721 5720 5721 5721 5719 5720 5722 5724 5721 5717 5716 5718 5717 5714 5711 5708 5706 5704 5701 5697 5694 5692 5689 5686
5659 5662 5663 5664 5667 5686 5698 5699 5704 5708 5707 5710 5711 5713 5713 5711 5711 5713 5713 5714 5714 5715 5715 5715 5713 5713 5716 5718 5717 5713 5714 5715 5713 5710 5707 5704 5702 5700 5698 5695 5691 5688 5685 5683
5660 5669 5665 5664 5672 5683 5689 5695 5698 5702 5702 5705 5707 5708 5708 5704 5705 5706 5706 5706 5707 5709 5709 5709 5707 5707 5708 5711 5712 5711 5712 5712 5709 5705 5702 5700 5697 5694 5693 5691 5688 5685 5682 5680
5648 5656 5657 5658 5668 5673 5679 5685 5689 5693 5695 5696 5698 5701 5701 5700 5699 5699 5699 5700 5701 5703 5703 5703 5702 5702 5703 5705 5706 5707 5708 5707 5704 5701 5698 5695 5692 5689 5686 5684 5682 5681 5680 5679
5645 5646 5645 5648 5662 5664 5670 5679 5683 5682 5683 5686 5688 5690 5693 5694 5692 5693 5693 5695 5696 5697 5698 5697 5697 5698 5699 5700 5700 5702 5703 5702 5699 5696 5693 5690 5688 5685 5682 5679 5675 5674 5674 5674